Weather in Poselok stantsii Saryyevo

Russia / Vladimir Oblast     56°17′55″N   41°42′33″E
temp.,
°C
wind,
m/s
gust,
m/s
humid.,
%
clouds,
%
prec.,
mm/h
press.,
hPa
HPBL,
m
28 june, tue
tue2800:00+18nne28850 0.0 1018231
03:00+14nne37912 0.0 1019193
06:00+15ne37700 0.0 1020339
09:00+18ne46465 0.0 10211199
12:00+21nne45381 0.0 10211832
15:00+21nne45355 0.0 10212137
18:00+19nne44415 0.0 10211909
21:00+13ne22674 0.0 102335
29 june, wed
wed2900:00+10nne226922 0.0 102430
03:00+9n22741 0.0 102419
06:00+12nne23640 0.0 1024161
09:00+18nne24410 0.0 10241397
12:00+20nne33325 0.0 10232007
15:00+22n33325 0.0 10212084
18:00+20n33420 0.0 10201819
21:00+14nnw2465100 0.0 102060
30 june, thu
thu3000:00+11nnw2572100 0.0 102079
03:00+10wnw267811 0.0 102097
06:00+13nw3870100 0.0 1019225
09:00+19nnw474665 0.0 1018810
12:00+23nnw58335 0.0 10171895
15:00+23n693828 0.0 10162380
18:00+22nnw5744100 0.0 10162218
21:00+16n277312 0.0 1017141
1 july, fri
fri100:00+12nne25760 0.0 101983
03:00+10nne22800 0.0 102013
06:00+13nne24671 0.0 1021155
09:00+19nne25435 0.0 10211156
12:00+22nne353369 0.0 10201858
15:00+23n34325 0.0 10192020
18:00+22n34425 0.0 10191642
21:00+16wnw22640 0.0 101915
2 july, sat
sat200:00+14w22680 0.0 101938
03:00+13w35755 0.0 101979
06:00+16w386868 0.0 1018215
09:00+22w475646 0.0 1017442
12:00+28wnw58395 0.0 10152637
15:00+29nnw583158 0.0 10143148
18:00+26nw494748 0.0 10131285
21:00+18nne24881 0.2 101473